Location: Newark
(11.0000°N, 10.0000°W)
Time: 10:43:39
(UTC+00:00)

ISS - Visible Passes

Search period start: 19 October 2019 00:00
Search period end: 29 October 2019 00:00
Orbit: 411 x 421 km, 51.6° (Epoch: 19 October)

Date Brightness Start Highest point End Pass type
(mag) Time Alt. Az. Time Alt. Az. Time Alt. Az.
19 Oct -0.4 05:29:33 10° SSE 05:30:52 12° SE 05:32:11 10° E visible
21 Oct -3.1 05:27:03 10° SSW 05:30:21 56° SE 05:33:38 10° NE visible
22 Oct -1.4 04:41:59 23° ESE 04:41:59 23° ESE 04:44:35 10° ENE visible
23 Oct -2.6 05:30:13 26° NW 05:30:13 26° NW 05:32:45 10° N visible
